Location: Ebenezer
(18.2167°N, 63.0667°W)
Time: 11:36:07
(UTC+00:00)

NOSS 3-2 (A) - Pass Details

Date: 26 January 2020
Orbit: 809 x 1399 km, 63.4° (Epoch: 20 February)

Event Time Altitude Azimuth Distance (km) Brightness Sun altitude
Rises 22:30:41 0° 199° (SSW) 3,316 6.9 -7.1°
Reaches altitude 10° 22:33:05 10° 197° (SSW) 2,381 6.1 -7.6°
Maximum altitude 22:38:28 71° 114° (ESE) 867 3.1 -8.8°
Drops below altitude 10° 22:44:10 10° 30° (NNE) 2,522 5.2 -10.1°
Enters shadow 22:46:12 - 29° (NNE) 3,306 5.9 -10.6°
